Regional Weather Roundup
Issued by NWS

Home | Current Version | Previous Version | Text Only | Print | Product List | Glossary On
Versions: 1 2 3 4 5 6 7 8 9 10 11 12 13 14 15 16 17 18 19 20 21 22 23 24 25 26 27 28 29 30 31 32 33 34 35 36 37 38 39 40 41 42 43 44 45 46 47 48 49 50
000
ASUS43 KLMK 310510
RWRKY
KENTUCKY REGIONAL WEATHER ROUNDUP
NATIONAL WEATHER SERVICE LOUISVILLE KY
100 AM EDT FRI JUL 31 2015

NOTE "FAIR" INDICATES FEW OR NO CLOUDS BELOW 12,000 FEET
WITH NO SIGNIFICANT WEATHER AND/OR OBSTRUCTIONS TO VISIBILITY.

KYZ001>023-026-027-061>063-070>075-310600-
WESTERN AND SOUTH CENTRAL KENTUCKY

CITY           SKY/WX    TMP DP  RH WIND       PRES   REMARKS
PADUCAH        PTCLDY    67  65  93 CALM      30.10S
HENDERSON      CLEAR     66  63  88 SW3       30.09R
OWENSBORO      PTCLDY    72  66  81 CALM      30.09S
HOPKINSVILLE   PTCLDY    71  64  79 CALM      30.09F
BOWLING GREEN  CLEAR     69  62  78 CALM      30.10S
GLASGOW        CLEAR    N/A N/A N/A CALM      30.10S
$$

KYZ024-025-028>034-038-045-046-053-310600-
NORTH CENTRAL KENTUCKY

CITY           SKY/WX    TMP DP  RH WIND       PRES   REMARKS
LOUISVILLE/SDF PTCLDY    74  62  66 CALM      30.08R
LOUISVILLE/LOU CLEAR     71  62  73 CALM      30.09R
FORT KNOX      CLEAR     64  62  91 CALM      30.08S
$$

KYZ035>037-039>044-047>052-055>060-089>105-310600-
NORTHEAST KENTUCKY

CITY           SKY/WX    TMP DP  RH WIND       PRES   REMARKS
LEXINGTON      PTCLDY    69  61  75 CALM      30.10R
COVINGTON      CLEAR     72  62  71 VRB3      30.08R
FRANKFORT      CLEAR     66  62  87 CALM      30.08S
$$

KYZ054-064>069-076>088-106>120-310600-
SOUTHEAST KENTUCKY

CITY           SKY/WX    TMP DP  RH WIND       PRES   REMARKS
JACKSON        PTCLDY    71  57  61 CALM      30.10S
LONDON         PTCLDY    69  59  70 CALM      30.10S
SOMERSET       PTCLDY    64  61  88 CALM      30.11S
MIDDLESBORO    PTCLDY    66  64  95 CALM      30.11R
MONTICELLO     PTCLDY    62  62 100 CALM      30.13S
$$



USA.gov is the U.S. government's official web portal to all federal, state and local government web resources and services.